Lake Catatoga Weather Center

Moon Phase Calendar



Lake Catatoga Water Level
Online Cameras

 


      

Current Conditions in Carlinville
10/16/2021 12:35:11 AM

48°F
Feels Like 43
Clouds
Humidity
92%
Pressure
30.06"
Wind
9.6 mph (NW)
Dew Point
46°F
UV Index
0/10 (Low)
Visibility
6 mi

Hourly Forecast

Date & Time Sat, Oct 16
12:00 AM
Sat, Oct 16
1:00 AM
Sat, Oct 16
2:00 AM
Sat, Oct 16
3:00 AM
Sat, Oct 16
4:00 AM
Sat, Oct 16
5:00 AM
Sat, Oct 16
6:00 AM
Sat, Oct 16
7:00 AM
Sat, Oct 16
8:00 AM
Sat, Oct 16
9:00 AM
Sat, Oct 16
10:00 AM
Sat, Oct 16
11:00 AM
Sat, Oct 16
12:00 PM
Sat, Oct 16
1:00 PM
Sat, Oct 16
2:00 PM
Sat, Oct 16
3:00 PM
Sat, Oct 16
4:00 PM
Sat, Oct 16
5:00 PM
Sat, Oct 16
6:00 PM
Sat, Oct 16
7:00 PM
Sat, Oct 16
8:00 PM
Sat, Oct 16
9:00 PM
Sat, Oct 16
10:00 PM
Sat, Oct 16
11:00 PM
Sun, Oct 17
12:00 AM
Sun, Oct 17
1:00 AM
Sun, Oct 17
2:00 AM
Sun, Oct 17
3:00 AM
Sun, Oct 17
4:00 AM
Sun, Oct 17
5:00 AM
Sun, Oct 17
6:00 AM
Sun, Oct 17
7:00 AM
Sun, Oct 17
8:00 AM
Sun, Oct 17
9:00 AM
Sun, Oct 17
10:00 AM
Sun, Oct 17
11:00 AM
Sun, Oct 17
12:00 PM
Sun, Oct 17
1:00 PM
Sun, Oct 17
2:00 PM
Sun, Oct 17
3:00 PM
Sun, Oct 17
4:00 PM
Sun, Oct 17
5:00 PM
Sun, Oct 17
6:00 PM
Sun, Oct 17
7:00 PM
Sun, Oct 17
8:00 PM
Sun, Oct 17
9:00 PM
Sun, Oct 17
10:00 PM
Sun, Oct 17
11:00 PM
Condition
Clouds

Clouds

Clouds

Clouds

Clouds

Clear

Clear

Clear

Clear

Clear

Clear

Clear

Clear

Clear

Clear

Clear

Clear

Clear

Clear

Clear

Clear

Clear

Clear

Clear

Clear

Clear

Clear

Clear

Clear

Clear

Clear

Clear

Clear

Clear

Clear

Clear

Clear

Clear

Clear

Clear

Clear

Clear

Clear

Clear

Clear

Clear

Clear

Clear
Temperature 48°F48°F48°F47°F46°F45°F45°F44°F45°F49°F53°F56°F58°F60°F61°F61°F61°F59°F54°F51°F50°F49°F48°F47°F47°F46°F46°F46°F45°F45°F45°F44°F46°F51°F56°F60°F63°F66°F68°F69°F69°F67°F61°F58°F57°F56°F55°F55°F
Feels Like 43°F43°F43°F43°F42°F41°F40°F39°F40°F44°F50°F53°F56°F57°F58°F58°F58°F57°F52°F49°F47°F46°F45°F44°F44°F43°F43°F42°F42°F41°F41°F41°F43°F48°F54°F58°F61°F64°F66°F67°F67°F65°F59°F56°F55°F54°F53°F52°F
Cloudiness 42%40%32%24%16%8%0%0%0%0%0%0%0%0%0%0%0%0%0%0%0%0%0%0%0%0%0%0%0%0%0%0%0%0%0%0%0%0%0%0%0%0%0%0%0%0%0%0%
Visibility 6 mi6 mi6 mi6 mi6 mi6 mi6 mi6 mi6 mi6 mi6 mi6 mi6 mi6 mi6 mi6 mi6 mi6 mi6 mi6 mi6 mi6 mi6 mi6 mi6 mi6 mi6 mi6 mi6 mi6 mi6 mi6 mi6 mi6 mi6 mi6 mi6 mi6 mi6 mi6 mi6 mi6 mi6 mi6 mi6 mi6 mi6 mi6 mi
Precipitation 31%17%0%0%0%0%0%0%0%0%0%0%0%0%0%0%0%0%0%0%0%0%0%0%0%0%0%0%0%0%0%0%0%0%0%0%0%0%0%0%0%0%0%0%0%0%0%0%
Humidity 85%92%86%80%75%70%64%64%62%53%45%39%36%36%36%35%36%40%48%50%52%53%54%55%55%56%56%57%59%61%62%63%62%54%47%42%38%36%35%34%34%43%50%52%54%54%55%57%
Dew Point 44°F46°F44°F41°F39°F36°F33°F32°F33°F33°F32°F32°F32°F33°F33°F33°F33°F35°F35°F34°F33°F33°F32°F32°F32°F31°F31°F31°F32°F32°F32°F32°F34°F35°F36°F37°F38°F38°F39°F39°F40°F43°F42°F41°F40°F40°F40°F40°F
Pressure 30.06"30.06"30.06"30.06"30.09"30.09"30.12"30.12"30.15"30.15"30.15"30.15"30.15"30.15"30.12"30.12"30.12"30.15"30.15"30.18"30.18"30.18"30.18"30.21"30.21"30.21"30.21"30.21"30.21"30.21"30.21"30.24"30.24"30.24"30.24"30.21"30.21"30.18"30.15"30.15"30.12"30.12"30.12"30.12"30.12"30.12"30.12"30.12"
Wind Speed 12.2 mph9.6 mph8.6 mph7.7 mph8 mph8.7 mph9.5 mph9.3 mph9.4 mph11.3 mph12 mph12.6 mph13.6 mph14.9 mph15.5 mph15.3 mph14.8 mph11.8 mph7.4 mph6.8 mph6.7 mph6.9 mph6.6 mph6.3 mph6.2 mph6.2 mph6.1 mph6.3 mph6.3 mph6.5 mph6.5 mph6.3 mph6 mph6.1 mph7.2 mph8.2 mph8.8 mph9.5 mph10 mph10 mph9.5 mph6.5 mph5.6 mph5.8 mph6.1 mph6.2 mph6.7 mph7.1 mph
Wind
Direction
316°
NW
307°
NW
298°
WNW
294°
WNW
284°
WNW
277°
W
282°
WNW
285°
WNW
288°
WNW
297°
WNW
303°
WNW
301°
WNW
296°
WNW
295°
WNW
298°
WNW
302°
WNW
305°
NW
304°
NW
301°
WNW
296°
WNW
294°
WNW
294°
WNW
293°
WNW
289°
WNW
285°
WNW
281°
W
274°
W
268°
W
263°
W
259°
W
259°
W
261°
W
258°
WSW
259°
W
255°
WSW
254°
WSW
252°
WSW
251°
WSW
251°
WSW
251°
WSW
251°
WSW
243°
WSW
235°
SW
231°
SW
227°
SW
224°
SW
224°
SW
225°
SW

Daily Forecast

Date High Low Precip. Humidity
Today
Oct 16

Clear
61 °F
44 °F
31%
36%
Sunday
Oct 17

Clear
69 °F
44 °F
0%
38%
Monday
Oct 18

Clear
72 °F
50 °F
0%
39%
Tuesday
Oct 19

Clouds
72 °F
52 °F
0%
37%
Wednesday
Oct 20

Rain
75 °F
54 °F
71%
40%
Thursday
Oct 21

Rain
65 °F
54 °F
82%
50%
Friday
Oct 22

Clouds
55 °F
45 °F
0%
60%
Saturday
Oct 23

Clear
50 °F
38 °F
0%
38%
Sunday
Oct 24

Clear
54 °F
33 °F
0%
30%
Monday
Oct 25

Clouds
62 °F
40 °F
0%
31%
Tuesday
Oct 26

Rain
60 °F
48 °F
100%
41%
Wednesday
Oct 27

Rain
63 °F
52 °F
100%
51%
Thursday
Oct 28

Clear
61 °F
44 °F
0%
39%
Friday
Oct 29

Clouds
64 °F
46 °F
0%
54%
Saturday
Oct 30

Clouds
66 °F
47 °F
0%
55%
Sunday
Oct 31

Clouds
69 °F
50 °F
0%
46%

Temperature 8-14 Day Outlook



Precipitation 8-14 Day Outlook




Quick Links
Lake Catatoga News
Lake Catatoga Photos
Lake Catatoga Videos




About Us
Contact Us
Site Map
Search Site
Advertise With Us
   
Catatoga.LakesOnline.com
THE LAKE CATATOGA WEBSITE

Copyright 2021, Lakes Online
Privacy    |    Legal